• In Netherlands
  • List of Countries
  • For 7 days
  • Water Temperature
  • Satellite Maps
  • Weather Map
  • Weather Widgets
  • user-avatar
    Login

    Hourly Weather Nesebyr

    Today, 29 July, Saturday

    Time Temperature Precipitation Wind Pressure Humidity
    00:00 +21°C° 0 mm 3 mps 757 mmHg 59%
    01:00 +21°C° 0 mm 3 mps 757 mmHg 60%
    02:00 +21°C° 0 mm 4 mps 757 mmHg 61%
    03:00 +20°C° 0 mm 4 mps 757 mmHg 63%
    04:00 +20°C° 0 mm 4 mps 757 mmHg 65%
    05:00 +20°C° 0 mm 3 mps 758 mmHg 67%
    06:00 +22°C° 0 mm 4 mps 758 mmHg 61%
    07:00 +25°C° 0 mm 4 mps 758 mmHg 55%
    08:00 +27°C° 0 mm 4 mps 759 mmHg 49%
    09:00 +29°C° 0 mm 4 mps 759 mmHg 44%
    10:00 +32°C° 0 mm 4 mps 759 mmHg 38%
    11:00 +33°C° 0 mm 3 mps 759 mmHg 33%
    12:00 +34°C° 0 mm 4 mps 759 mmHg 31%
    13:00 +35°C° 0 mm 4 mps 759 mmHg 28%
    14:00 +36°C° 0 mm 4 mps 759 mmHg 26%
    15:00 +35°C° 0 mm 4 mps 759 mmHg 28%
    16:00 +35°C° 0 mm 4 mps 759 mmHg 30%
    17:00 +34°C° 0 mm 4 mps 759 mmHg 32%
    18:00 +31°C° 0 mm 3 mps 759 mmHg 37%
    19:00 +29°C° 0 mm 3 mps 759 mmHg 43%
    20:00 +27°C° 0 mm 2 mps 759 mmHg 48%
    21:00 +26°C° 0 mm 2 mps 760 mmHg 51%
    22:00 +25°C° 0 mm 2 mps 760 mmHg 53%
    23:00 +24°C° 0 mm 1 mps 760 mmHg 56%

    Tomorrow, 30 July, Sunday

    Time Temperature Precipitation Wind Pressure Humidity
    00:00 +24°C° 0 mm 1 mps 760 mmHg 57%
    01:00 +24°C° 0 mm 1 mps 761 mmHg 58%
    02:00 +23°C° 0 mm 1 mps 761 mmHg 59%
    03:00 +23°C° 0 mm 1 mps 761 mmHg 60%
    04:00 +22°C° 0 mm 1 mps 761 mmHg 61%
    05:00 +22°C° 0 mm 1 mps 761 mmHg 62%
    06:00 +24°C° 0 mm 1 mps 761 mmHg 56%
    07:00 +26°C° 0 mm 1 mps 761 mmHg 51%
    08:00 +28°C° 0 mm 2 mps 762 mmHg 46%
    09:00 +30°C° 0 mm 2 mps 762 mmHg 42%
    10:00 +31°C° 0 mm 2 mps 762 mmHg 39%
    11:00 +34°C° 0 mm 3 mps 762 mmHg 35%
    12:00 +35°C° 0 mm 3 mps 762 mmHg 34%
    13:00 +35°C° 0 mm 3 mps 761 mmHg 33%
    14:00 +36°C° 0 mm 4 mps 761 mmHg 31%
    15:00 +35°C° 0 mm 4 mps 761 mmHg 34%
    16:00 +34°C° 0 mm 4 mps 761 mmHg 37%
    17:00 +34°C° 0 mm 5 mps 761 mmHg 40%
    18:00 +30°C° 0 mm 4 mps 761 mmHg 50%
    19:00 +28°C° 0 mm 4 mps 761 mmHg 60%
    20:00 +25°C° 0 mm 3 mps 761 mmHg 69%
    21:00 +24°C° 0 mm 3 mps 762 mmHg 74%
    22:00 +24°C° 0 mm 2 mps 762 mmHg 80%
    23:00 +23°C° 0 mm 2 mps 762 mmHg 85%

    Day after tomorrow, 31 July, Monday

    Time Temperature Precipitation Wind Pressure Humidity
    00:00 +21°C° 0 mm 2 mps 762 mmHg 87%
    01:00 +21°C° 0 mm 2 mps 762 mmHg 89%
    02:00 +22°C° 0 mm 1 mps 762 mmHg 91%
    03:00 +20°C° 0 mm 2 mps 762 mmHg 92%
    04:00 +20°C° 0 mm 2 mps 762 mmHg 93%
    05:00 +20°C° 0 mm 2 mps 761 mmHg 93%
    06:00 +22°C° 0 mm 3 mps 762 mmHg 81%
    07:00 +25°C° 0 mm 3 mps 762 mmHg 69%
    08:00 +27°C° 0 mm 4 mps 762 mmHg 57%
    09:00 +29°C° 0 mm 4 mps 762 mmHg 50%
    10:00 +30°C° 0 mm 5 mps 762 mmHg 43%
    11:00 +33°C° 0 mm 6 mps 762 mmHg 36%
    12:00 +33°C° 0 mm 6 mps 762 mmHg 35%
    13:00 +33°C° 0 mm 6 mps 762 mmHg 34%
    14:00 +34°C° 0 mm 6 mps 762 mmHg 33%
    15:00 +33°C° 0 mm 6 mps 761 mmHg 35%
    16:00 +32°C° 0 mm 6 mps 761 mmHg 37%
    17:00 +32°C° 0 mm 6 mps 761 mmHg 38%
    18:00 +29°C° 0 mm 5 mps 762 mmHg 48%
    19:00 +27°C° 0 mm 5 mps 762 mmHg 57%
    20:00 +25°C° 0 mm 4 mps 762 mmHg 66%
    21:00 +23°C° 0 mm 4 mps 762 mmHg 72%
    22:00 +22°C° 0 mm 3 mps 763 mmHg 77%
    23:00 +21°C° 0 mm 3 mps 763 mmHg 83%

    1 August, Tuesday

    Time Temperature Precipitation Wind Pressure Humidity
    00:00 +21°C° 0 mm 3 mps 763 mmHg 84%
    01:00 +21°C° 0 mm 3 mps 763 mmHg 85%
    02:00 +20°C° 0 mm 3 mps 762 mmHg 86%
    03:00 +20°C° 0 mm 3 mps 763 mmHg 85%
    04:00 +20°C° 0 mm 4 mps 763 mmHg 85%
    05:00 +20°C° 0 mm 4 mps 763 mmHg 85%
    06:00 +22°C° 0 mm 4 mps 763 mmHg 75%
    07:00 +25°C° 0 mm 5 mps 763 mmHg 65%
    08:00 +27°C° 0 mm 5 mps 763 mmHg 56%
    09:00 +29°C° 0 mm 6 mps 763 mmHg 50%
    10:00 +32°C° 0 mm 7 mps 763 mmHg 44%
    11:00 +34°C° 0 mm 7 mps 763 mmHg 39%
    12:00 +34°C° 0 mm 7 mps 763 mmHg 37%
    13:00 +35°C° 0 mm 8 mps 763 mmHg 35%
    14:00 +35°C° 0 mm 8 mps 762 mmHg 34%
    15:00 +35°C° 0 mm 8 mps 762 mmHg 36%
    16:00 +34°C° 0 mm 8 mps 762 mmHg 39%
    17:00 +33°C° 0 mm 8 mps 762 mmHg 41%
    18:00 +30°C° 0 mm 7 mps 762 mmHg 50%
    19:00 +28°C° 0 mm 6 mps 763 mmHg 59%
    20:00 +26°C° 0 mm 5 mps 763 mmHg 68%
    21:00 +25°C° 0 mm 5 mps 763 mmHg 73%
    22:00 +23°C° 0 mm 4 mps 763 mmHg 79%
    23:00 +22°C° 0 mm 4 mps 763 mmHg 85%

    2 August, Wednesday

    Time Temperature Precipitation Wind Pressure Humidity
    00:00 +22°C° 0 mm 4 mps 763 mmHg 85%
    01:00 +21°C° 0 mm 4 mps 762 mmHg 85%
    02:00 +21°C° 0 mm 4 mps 762 mmHg 85%
    03:00 +21°C° 0 mm 4 mps 762 mmHg 84%
    04:00 +20°C° 0 mm 4 mps 762 mmHg 83%
    05:00 +20°C° 0 mm 4 mps 761 mmHg 81%
    06:00 +22°C° 0 mm 5 mps 762 mmHg 72%
    07:00 +25°C° 0 mm 5 mps 762 mmHg 63%
    08:00 +28°C° 0 mm 6 mps 762 mmHg 54%
    09:00 +29°C° 0 mm 6 mps 761 mmHg 48%
    10:00 +32°C° 0 mm 7 mps 761 mmHg 42%
    11:00 +34°C° 0 mm 7 mps 761 mmHg 36%
    12:00 +35°C° 0 mm 7 mps 761 mmHg 36%
    13:00 +35°C° 0 mm 7 mps 761 mmHg 36%
    14:00 +36°C° 0 mm 7 mps 760 mmHg 36%
    15:00 +35°C° 0 mm 7 mps 760 mmHg 39%
    16:00 +34°C° 0 mm 7 mps 760 mmHg 41%
    17:00 +33°C° 0 mm 6 mps 760 mmHg 43%
    18:00 +30°C° 0 mm 6 mps 760 mmHg 52%
    19:00 +28°C° 0 mm 5 mps 760 mmHg 61%
    20:00 +26°C° 0 mm 4 mps 760 mmHg 70%
    21:00 +25°C° 0 mm 4 mps 760 mmHg 74%
    22:00 +23°C° 0 mm 4 mps 760 mmHg 77%
    23:00 +22°C° 0 mm 3 mps 760 mmHg 80%

    3 August, Thursday

    Time Temperature Precipitation Wind Pressure Humidity
    00:00 +22°C° 0 mm 3 mps 760 mmHg 79%
    01:00 +22°C° 0 mm 3 mps 760 mmHg 77%
    02:00 +22°C° 0 mm 4 mps 759 mmHg 75%
    03:00 +21°C° 0 mm 4 mps 759 mmHg 74%
    04:00 +21°C° 0 mm 4 mps 759 mmHg 73%
    05:00 +21°C° 0 mm 4 mps 759 mmHg 72%
    06:00 +23°C° 0 mm 4 mps 759 mmHg 65%
    07:00 +27°C° 0 mm 5 mps 759 mmHg 58%
    08:00 +29°C° 0 mm 5 mps 759 mmHg 51%
    09:00 +32°C° 0 mm 6 mps 759 mmHg 46%
    10:00 +34°C° 0 mm 6 mps 759 mmHg 41%
    11:00 +36°C° 0 mm 7 mps 758 mmHg 35%
    12:00 +36°C° 0 mm 7 mps 758 mmHg 34%
    13:00 +38°C° 0 mm 7 mps 758 mmHg 33%
    14:00 +39°C° 0 mm 7 mps 757 mmHg 32%
    15:00 +38°C° 0 mm 6 mps 757 mmHg 34%
    16:00 +36°C° 0 mm 6 mps 757 mmHg 36%
    17:00 +36°C° 0 mm 6 mps 757 mmHg 38%
    18:00 +33°C° 0 mm 5 mps 757 mmHg 46%
    19:00 +30°C° 0 mm 4 mps 757 mmHg 55%
    20:00 +28°C° 0 mm 3 mps 757 mmHg 64%
    21:00 +27°C° 0 mm 3 mps 757 mmHg 68%
    22:00 +26°C° 0 mm 3 mps 757 mmHg 73%
    23:00 +25°C° 0 mm 2 mps 757 mmHg 77%
    Show more